Location: Austin
(30.3000°N, 97.7500°W)
Time: 10:39:33
(UTC-05:00)

Lacrosse 5 - Pass Details

Date: 03 April 2024
Orbit: 714 x 724 km, 57.0° (Epoch: 09 March)

Event Time Altitude Azimuth Distance (km) Brightness Sun altitude
Exits shadow 06:08:37 21° 280° (W) 1,581 3.1 -15.3°
Maximum altitude 06:10:35 27° 315° (NW) 1,365 3.0 -14.9°
Drops below altitude 10° 06:14:55 10° 13° (NNE) 2,215 4.8 -14.0°
Sets 06:17:38 0° 26° (NNE) 3,138 5.8 -13.4°
